Wind_Speed
24 24 24 25 25 26 26 26 26 27 26 27 28 28 28 28 28 28 28 27 27 26 25 23 22 21 20 19 18 17 17 16 17 17 18 18 17 17 16 16 15 14 14
29 29 28 28 29 29 29 29 29 29 28 29 30 30 31 31 31 30 31 31 30 29 28 27 26 25 23 22 21 20 20 19 18 18 19 20 20 19 19 18 18 17 16
32 32 32 31 31 31 31 31 31 31 31 31 32 32 32 32 33 33 33 33 32 32 32 31 29 28 27 25 24 23 22 22 21 20 20 21 21 22 21 21 20 20 19
33 34 34 34 33 33 32 32 33 33 33 33 33 34 33 33 33 34 35 35 35 33 33 33 33 31 30 28 26 25 24 24 24 23 22 22 22 23 23 23 23 22 21
35 36 36 35 36 35 35 35 35 35 34 35 35 35 34 33 33 34 34 34 35 34 33 33 33 33 32 31 29 27 26 26 26 25 25 24 24 24 24 25 25 24 24
38 38 37 37 37 37 37 37 36 37 36 36 36 36 36 35 34 34 33 33 34 33 33 32 32 32 32 31 29 29 28 28 27 27 27 26 26 26 25 25 26 26 26
39 39 39 39 39 38 38 37 38 39 38 38 37 36 36 35 34 33 33 33 32 31 32 32 32 32 31 31 30 29 29 29 29 28 28 28 28 27 27 27 27 27 27
41 41 40 40 41 41 40 40 41 40 38 38 38 37 36 34 34 34 33 32 31 31 31 31 31 32 32 30 29 29 29 29 28 28 28 28 28 28 28 28 28 28 28
42 42 41 41 42 43 42 41 42 41 40 39 39 39 37 35 34 33 33 32 31 29 29 30 30 30 30 30 29 29 28 28 27 27 27 28 28 28 29 29 28 28 28
41 41 41 41 42 42 42 42 42 42 42 40 40 40 39 37 35 33 33 31 30 28 27 28 30 30 29 28 27 27 27 27 27 26 26 27 27 27 28 28 28 28 28
39 40 40 40 41 42 42 43 43 43 43 42 41 41 39 38 36 35 33 31 29 28 27 26 27 27 27 26 27 26 26 26 26 25 25 26 26 26 26 27 28 28 29
40 40 41 42 42 43 44 44 45 44 44 43 42 42 41 39 37 36 33 31 30 29 27 26 26 25 26 25 25 25 25 25 25 25 25 25 25 25 25 26 26 27 28
40 41 42 42 43 43 43 44 45 45 45 45 43 43 42 40 38 36 34 32 31 30 28 26 25 25 25 25 25 25 25 25 25 25 25 25 25 25 25 26 26 27 28
41 41 41 42 42 43 44 45 45 45 46 45 44 43 41 38 37 35 33 32 32 30 28 27 26 25 25 24 24 24 25 25 25 25 25 25 25 25 25 26 26 27 28
42 42 42 42 43 44 45 45 46 46 45 45 44 42 40 38 36 35 33 31 30 29 28 26 26 25 25 24 24 25 25 25 25 25 26 26 26 26 26 26 27 28 29
43 42 42 43 43 44 44 44 43 43 43 42 42 41 39 38 35 34 33 31 30 30 29 27 27 26 24 24 25 25 26 26 26 27 27 28 28 29 28 28 29 30 30
42 42 42 42 42 40 39 38 38 38 37 38 36 36 37 36 34 32 31 30 30 29 28 28 27 26 25 25 25 26 27 27 28 29 29 30 30 31 31 32 32 33 33
40 39 39 39 38 37 36 35 35 34 33 32 32 33 33 33 32 32 31 30 28 27 27 27 26 26 25 25 25 26 26 27 28 30 30 31 32 33 34 35 35 36 37
36 36 36 35 34 33 32 32 30 29 27 26 26 27 29 30 29 29 27 27 26 26 25 24 23 23 24 24 24 25 26 27 28 29 31 32 33 35 36 37 38 39 40
32 32 31 30 29 27 27 25 24 25 25 23 23 24 26 27 27 27 26 25 24 24 22 21 21 22 22 23 24 25 26 27 28 30 31 32 34 35 37 38 39 40 41
29 28 26 25 24 24 22 22 22 22 22 22 22 22 23 24 25 25 24 22 21 20 19 19 20 20 21 22 22 23 25 26 28 29 31 33 34 36 38 39 40 41 42
26 24 22 21 21 21 20 19 18 19 20 21 21 21 23 22 22 22 20 18 18 17 17 18 18 18 19 19 21 22 24 25 27 29 32 34 35 37 39 40 41 42 43
23 22 20 18 18 16 15 16 16 15 17 19 20 20 20 19 18 17 16 15 15 15 15 16 16 17 18 19 20 21 23 25 27 29 32 34 36 38 39 40 41 42 43
22 20 18 16 15 14 13 13 13 12 12 13 15 16 16 17 16 15 14 14 14 14 14 14 15 16 17 18 19 21 23 25 27 30 32 34 36 38 39 40 40 40 41
20 18 16 15 14 13 12 12 11 11 11 11 12 13 14 14 14 13 13 12 12 12 12 13 13 14 15 17 19 21 23 26 28 30 32 33 34 35 36 36 36 37 38
19 17 15 14 13 11 11 11 11 11 10 10 11 12 12 12 12 11 11 11 11 11 11 12 12 14 15 17 19 21 24 26 28 30 32 33 33 33 33 34 33 33 33
Wind_Direction
285 285 285 287 287 288 288 290 291 292 293 293 292 290 288 288 288 285 284 284 282 281 278 279 279 279 280 280 278 278 277 274 270 265 262 259 257 255 254 254 255 256 257
284 284 283 282 282 283 283 284 287 288 290 291 291 291 288 286 285 282 282 281 277 276 275 274 274 274 276 276 276 275 275 275 273 269 264 260 258 255 254 253 254 254 255
281 282 281 281 281 281 281 282 283 284 286 288 290 290 290 287 283 282 282 281 279 275 272 269 269 270 272 273 273 273 273 273 272 271 269 264 261 258 256 254 253 253 254
277 278 280 281 281 282 282 282 283 284 286 288 290 290 290 289 286 283 281 279 277 275 273 269 265 265 267 270 271 271 271 271 270 270 268 266 263 260 258 256 254 254 253
275 275 275 278 280 280 281 282 283 284 286 288 289 289 289 288 288 285 281 278 277 275 273 269 264 261 263 266 268 269 269 269 269 269 267 266 264 263 261 258 256 255 254
275 276 275 275 277 278 279 281 282 284 285 286 287 288 288 287 288 285 281 278 276 273 272 269 265 263 262 262 264 265 267 268 267 267 266 265 264 263 261 259 258 256 255
277 278 278 277 278 279 278 280 283 284 285 285 286 287 287 288 287 284 281 277 275 274 272 270 265 261 260 260 260 263 265 266 266 265 264 263 263 262 261 260 259 258 257
277 279 279 278 279 280 281 281 282 284 284 283 284 285 286 286 286 285 281 277 275 274 271 266 262 258 258 256 259 262 263 264 264 264 263 262 261 260 261 260 260 259 259
278 278 279 279 279 280 281 282 282 283 283 283 282 282 284 284 283 281 280 278 274 271 269 263 257 255 254 255 259 259 260 262 263 263 262 261 259 259 260 260 260 259 259
279 279 280 281 280 280 281 281 281 281 282 281 280 280 282 281 282 279 277 275 272 268 267 261 251 250 250 253 256 257 259 259 260 260 261 260 259 258 259 259 259 258 257
280 281 281 281 280 280 280 280 280 279 281 280 278 280 280 281 280 277 273 273 269 264 262 258 251 250 250 253 255 257 259 258 258 258 258 258 260 260 260 259 258 258 257
281 281 282 282 281 281 280 280 279 279 279 278 277 277 277 278 277 275 271 269 266 261 257 255 251 252 252 252 253 256 258 256 256 257 258 258 259 259 259 259 258 258 257
283 283 282 283 282 282 281 280 278 278 277 276 276 276 274 274 273 271 267 266 263 258 256 253 252 254 252 250 251 254 255 255 255 256 257 258 259 259 259 259 259 259 258
284 283 283 283 283 283 282 281 279 278 276 275 274 273 271 271 270 266 262 261 258 256 254 251 250 249 249 249 251 253 255 256 256 257 259 259 260 260 261 261 262 261 260
285 285 284 284 285 284 283 281 280 278 275 272 271 270 267 266 265 262 261 257 255 254 252 249 247 247 247 251 255 256 257 257 258 258 259 260 261 262 263 264 263 263 262
285 286 286 286 286 285 284 281 279 277 273 269 268 265 262 261 261 260 256 255 255 253 252 249 245 246 248 251 253 257 258 259 261 262 263 263 264 264 264 264 264 263 263
286 286 286 286 286 286 283 281 277 275 271 267 263 260 259 258 257 255 253 252 252 252 250 249 247 247 250 252 254 257 259 262 264 265 266 267 267 266 266 265 264 264 263
286 286 287 287 286 284 282 279 276 272 268 262 260 257 253 250 249 250 249 249 251 250 252 249 248 250 252 255 257 260 262 264 266 267 268 268 268 268 268 267 266 265 264
288 288 289 288 287 284 281 278 273 269 264 258 255 252 248 247 246 245 245 248 249 249 246 245 246 249 254 258 261 263 265 268 269 270 271 272 272 271 270 270 268 266 265
290 290 291 290 287 286 281 275 270 262 257 254 250 247 246 245 242 242 246 246 245 243 243 245 249 254 258 261 265 268 271 272 274 275 277 277 277 276 274 273 271 269 266
292 291 293 292 288 286 282 275 268 261 257 253 249 242 238 238 238 242 239 237 238 239 242 248 254 258 262 265 269 272 275 278 279 280 281 280 280 279 277 275 274 272 269
293 293 294 292 290 288 283 276 271 263 255 252 248 242 240 239 239 236 232 233 237 242 247 251 255 259 263 269 274 278 281 283 285 286 286 286 285 284 282 279 276 273 270
293 294 294 292 291 292 283 274 270 260 252 246 242 242 241 239 235 229 230 232 235 241 245 251 257 262 268 273 278 283 286 289 291 293 293 292 290 288 285 282 279 275 270
290 291 291 289 288 287 280 273 265 260 249 242 240 236 235 231 230 228 229 234 238 241 246 253 261 268 273 280 285 291 295 297 298 299 299 298 296 293 289 286 281 276 272
284 283 285 286 283 281 275 266 261 258 253 242 234 230 226 224 225 225 227 231 236 242 249 258 266 274 281 289 296 300 302 304 306 306 306 304 302 298 295 291 286 280 275
278 277 279 281 280 275 272 263 256 252 245 236 229 223 220 220 218 216 220 227 236 246 256 265 274 284 291 298 303 307 310 312 312 312 310 308 306 303 299 295 291 285 280
Height
5902 5901 5899 5898 5896 5895 5894 5892 5890 5889 5888 5886 5885 5884 5882 5881 5880 5880 5879 5878 5877 5876 5876 5876 5876 5875 5874 5874 5873 5872 5871 5870 5870 5869 5869 5869 5869 5869 5870 5870 5870 5870 5871
5894 5894 5893 5891 5890 5889 5887 5886 5884 5883 5881 5880 5878 5877 5876 5874 5873 5872 5872 5871 5870 5870 5869 5869 5869 5869 5869 5868 5868 5867 5867 5866 5866 5866 5865 5865 5865 5865 5866 5866 5866 5867 5867
5887 5885 5884 5883 5882 5881 5880 5879 5877 5876 5874 5873 5871 5869 5868 5866 5865 5864 5863 5862 5862 5862 5862 5862 5862 5862 5862 5862 5862 5862 5862 5861 5861 5861 5861 5861 5861 5861 5861 5862 5862 5863 5863
5879 5877 5875 5874 5873 5872 5871 5869 5868 5867 5866 5864 5863 5861 5859 5858 5856 5855 5854 5853 5853 5853 5853 5853 5854 5855 5855 5855 5856 5856 5856 5856 5856 5855 5855 5855 5856 5856 5856 5857 5857 5858 5859
5869 5867 5866 5864 5863 5862 5861 5860 5859 5858 5857 5855 5854 5852 5850 5849 5847 5846 5845 5844 5843 5843 5844 5844 5845 5846 5847 5848 5849 5849 5849 5849 5849 5849 5850 5850 5850 5850 5851 5851 5852 5853 5854
5858 5856 5855 5854 5853 5851 5851 5850 5849 5848 5847 5846 5844 5844 5842 5840 5838 5837 5836 5835 5835 5835 5835 5835 5836 5838 5839 5840 5841 5842 5842 5842 5843 5843 5843 5843 5844 5844 5844 5845 5846 5847 5848
5847 5846 5845 5844 5842 5841 5840 5840 5839 5838 5837 5836 5835 5835 5834 5832 5830 5829 5827 5827 5826 5826 5826 5827 5828 5829 5831 5832 5833 5834 5835 5835 5836 5836 5836 5836 5837 5837 5838 5839 5840 5841 5842
5837 5836 5835 5833 5832 5831 5830 5829 5829 5828 5827 5826 5825 5824 5824 5824 5822 5820 5819 5818 5818 5818 5818 5818 5819 5821 5822 5824 5825 5826 5827 5828 5828 5829 5829 5829 5830 5830 5831 5832 5833 5834 5835
5827 5826 5824 5823 5822 5821 5821 5820 5819 5818 5817 5817 5815 5815 5814 5815 5814 5813 5811 5810 5809 5809 5810 5810 5811 5812 5814 5816 5818 5819 5820 5821 5821 5821 5822 5822 5822 5823 5824 5824 5825 5827 5828
5817 5815 5814 5813 5812 5811 5810 5809 5809 5808 5806 5806 5806 5805 5804 5804 5804 5804 5803 5802 5802 5802 5802 5802 5803 5805 5806 5808 5810 5811 5813 5813 5814 5814 5815 5815 5816 5816 5816 5817 5818 5819 5820
5807 5805 5804 5802 5801 5801 5800 5799 5797 5797 5796 5796 5796 5795 5794 5794 5794 5794 5794 5794 5793 5794 5795 5795 5796 5797 5798 5801 5803 5804 5805 5806 5807 5807 5808 5808 5809 5809 5810 5810 5811 5812 5813
5797 5795 5793 5792 5791 5790 5789 5787 5786 5786 5785 5785 5785 5785 5784 5785 5785 5784 5785 5785 5785 5786 5787 5788 5789 5790 5791 5793 5795 5797 5798 5799 5800 5800 5801 5801 5802 5802 5803 5803 5804 5804 5805
5786 5784 5783 5781 5780 5778 5777 5775 5775 5774 5774 5773 5773 5773 5774 5774 5775 5775 5775 5776 5777 5778 5779 5781 5782 5783 5784 5786 5787 5789 5790 5791 5792 5793 5793 5794 5795 5795 5796 5796 5796 5797 5797
5775 5773 5772 5770 5768 5766 5765 5763 5762 5761 5761 5761 5761 5761 5762 5763 5764 5765 5766 5767 5768 5770 5771 5773 5774 5776 5777 5778 5780 5781 5783 5784 5785 5785 5786 5786 5787 5787 5788 5788 5788 5789 5789
5764 5762 5760 5758 5756 5754 5752 5751 5749 5748 5748 5748 5748 5749 5751 5753 5754 5755 5756 5758 5760 5762 5763 5765 5767 5769 5770 5771 5773 5774 5775 5776 5777 5778 5778 5779 5779 5779 5780 5780 5780 5780 5780
5752 5750 5748 5746 5744 5742 5740 5737 5736 5735 5734 5734 5735 5736 5739 5741 5743 5746 5748 5749 5751 5754 5755 5757 5759 5761 5762 5764 5765 5766 5767 5768 5768 5769 5770 5770 5771 5771 5771 5771 5771 5771 5771
5740 5738 5736 5734 5732 5730 5727 5725 5723 5722 5722 5722 5723 5725 5728 5731 5733 5736 5738 5740 5742 5745 5747 5749 5751 5753 5754 5756 5757 5758 5759 5760 5760 5760 5761 5761 5761 5761 5761 5761 5761 5761 5761
5729 5727 5725 5722 5720 5718 5716 5714 5713 5711 5711 5711 5713 5714 5717 5720 5723 5726 5729 5732 5735 5737 5740 5742 5743 5745 5746 5748 5749 5750 5751 5751 5752 5752 5752 5752 5751 5751 5751 5751 5750 5750 5750
5719 5717 5714 5712 5709 5707 5705 5704 5703 5703 5703 5703 5704 5705 5708 5711 5715 5718 5721 5724 5727 5730 5732 5734 5735 5737 5739 5741 5742 5742 5743 5743 5743 5743 5742 5742 5741 5740 5740 5739 5739 5739 5738
5710 5708 5705 5702 5700 5698 5696 5696 5695 5696 5697 5698 5698 5699 5701 5704 5708 5711 5714 5717 5720 5723 5725 5727 5729 5731 5732 5733 5734 5734 5735 5735 5734 5734 5732 5731 5730 5729 5728 5728 5727 5726 5725
5702 5700 5697 5695 5693 5691 5689 5689 5689 5689 5691 5692 5693 5695 5696 5698 5701 5705 5708 5711 5714 5717 5719 5721 5723 5724 5725 5726 5727 5727 5727 5726 5725 5724 5723 5721 5720 5718 5716 5715 5713 5712 5711
5696 5693 5691 5689 5687 5685 5684 5683 5683 5684 5685 5686 5688 5690 5692 5694 5697 5700 5702 5706 5709 5711 5713 5715 5717 5718 5719 5719 5720 5719 5719 5718 5716 5715 5713 5711 5708 5706 5704 5702 5700 5698 5697
5690 5688 5686 5684 5683 5681 5679 5679 5678 5679 5679 5681 5683 5685 5687 5689 5692 5695 5698 5701 5703 5706 5708 5710 5711 5712 5713 5713 5713 5712 5711 5709 5707 5705 5702 5699 5696 5693 5690 5687 5685 5683 5682
5685 5683 5682 5680 5679 5677 5676 5675 5675 5675 5675 5677 5679 5681 5683 5685 5688 5691 5694 5697 5699 5701 5703 5705 5706 5706 5707 5706 5706 5705 5703 5701 5698 5695 5691 5688 5684 5680 5677 5673 5671 5668 5667
5680 5678 5677 5676 5675 5673 5673 5672 5672 5672 5673 5674 5676 5678 5680 5682 5685 5688 5691 5693 5695 5697 5699 5700 5701 5701 5701 5700 5699 5697 5695 5692 5689 5685 5681 5677 5672 5668 5664 5661 5658 5655 5653
5674 5673 5673 5672 5671 5670 5670 5670 5670 5670 5671 5672 5673 5675 5677 5680 5682 5685 5687 5690 5692 5693 5695 5695 5696 5696 5695 5693 5692 5690 5687 5683 5679 5675 5671 5667 5662 5658 5654 5650 5646 5644 5641